| time (UTC) | temp C | wind direction | speed KPH | gust KPH | rain 1hr cm | rain 24hr cm | rain mn cm | humidity % | barometer mb |
| 20260507183654 | 15 | 180 | 3.2 | 4.8 | 0.00 | 0.00 | 0.00 | 63 | 1014.0 |
| 20260507182630 | 15 | 270 | 3.2 | 4.8 | 0.00 | 0.00 | 0.00 | 62 | 1013.7 |
| 20260507181634 | 15 | 180 | 3.2 | 4.8 | 0.00 | 0.00 | 0.00 | 60 | 1013.6 |
| 20260507180630 | 15 | 270 | 3.2 | 4.8 | 0.00 | 0.00 | 0.00 | 58 | 1013.6 |
| 20260507175714 | 16 | 225 | 4.8 | 6.4 | 0.00 | 0.00 | 0.00 | 56 | 1013.5 |
| 20260507174630 | 16 | 225 | 3.2 | 4.8 | 0.00 | 0.00 | 0.00 | 55 | 1013.8 |
| 20260507173634 | 16 | 225 | 3.2 | 4.8 | 0.00 | 0.00 | 0.00 | 54 | 1013.4 |
| 20260507172610 | 17 | 0 | 3.2 | 4.8 | 0.00 | 0.00 | 0.00 | 52 | 1013.4 |
| 20260507171634 | 17 | 225 | 3.2 | 4.8 | 0.00 | 0.00 | 0.00 | 50 | 1013.6 |
| 20260507170630 | 17 | 225 | 6.4 | 9.7 | 0.00 | 0.00 | 0.00 | 50 | 1013.4 |
| 20260507165754 | 17 | 225 | 6.4 | 12.9 | 0.00 | 0.00 | 0.00 | 50 | 1013.1 |
| 20260507164610 | 17 | 225 | 6.4 | 11.3 | 0.00 | 0.00 | 0.00 | 51 | 1013.2 |
| 20260507163634 | 17 | 180 | 9.7 | 12.9 | 0.00 | 0.00 | 0.00 | 51 | 1013.0 |
| 20260507162610 | 18 | 180 | 8.0 | 9.7 | 0.00 | 0.00 | 0.00 | 51 | 1013.0 |
| 20260507161714 | 18 | 225 | 8.0 | 11.3 | 0.00 | 0.00 | 0.00 | 53 | 1013.0 |
| 20260507160610 | 17 | 225 | 6.4 | 6.4 | 0.00 | 0.00 | 0.00 | 59 | 1013.1 |
| 20260507155714 | 16 | 0 | 4.8 | 6.4 | 0.00 | 0.00 | 0.00 | 57 | 1013.0 |
| 20260507154610 | 16 | 225 | 1.6 | 3.2 | 0.00 | 0.00 | 0.00 | 56 | 1013.2 |
| 20260507153634 | 16 | 225 | 6.4 | 6.4 | 0.00 | 0.00 | 0.00 | 56 | 1013.1 |
| 20260507152650 | 16 | 180 | 6.4 | 8.0 | 0.00 | 0.00 | 0.00 | 55 | 1013.1 |
| 20260507151714 | 16 | 135 | 4.8 | 6.4 | 0.00 | 0.00 | 0.00 | 54 | 1013.2 |
| 20260507150610 | 16 | 225 | 6.4 | 11.3 | 0.00 | 0.00 | 0.00 | 55 | 1013.1 |
| 20260507145714 | 17 | 225 | 4.8 | 6.4 | 0.00 | 0.00 | 0.00 | 55 | 1013.4 |
| 20260507144630 | 17 | 180 | 9.7 | 12.9 | 0.00 | 0.00 | 0.00 | 53 | 1013.4 |
| 20260507143634 | 17 | 225 | 9.7 | 12.9 | 0.00 | 0.00 | 0.00 | 54 | 1013.3 |
| 20260507142650 | 17 | 180 | 6.4 | 8.0 | 0.00 | 0.00 | 0.00 | 56 | 1013.2 |
| 20260507141654 | 17 | 180 | 8.0 | 11.3 | 0.00 | 0.00 | 0.00 | 52 | 1013.4 |
| 20260507140610 | 17 | 225 | 11.3 | 12.9 | 0.00 | 0.00 | 0.00 | 54 | 1013.7 |
| 20260507135714 | 17 | 270 | 11.3 | 12.9 | 0.00 | 0.00 | 0.00 | 50 | 1013.6 |
| 20260507134630 | 17 | 180 | 12.9 | 16.1 | 0.00 | 0.00 | 0.00 | 50 | 1013.5 |
| 20260507133654 | 18 | 225 | 12.9 | 14.5 | 0.00 | 0.00 | 0.00 | 52 | 1013.5 |
| 20260507132630 | 17 | 225 | 6.4 | 12.9 | 0.00 | 0.00 | 0.00 | 50 | 1013.7 |
| 20260507131634 | 17 | 315 | 6.4 | 8.0 | 0.00 | 0.00 | 0.00 | 50 | 1013.5 |
| 20260507130610 | 17 | 225 | 12.9 | 16.1 | 0.00 | 0.00 | 0.00 | 50 | 1013.8 |
| 20260507124650 | 17 | 248 | 9.7 | 12.9 | 0.00 | 0.00 | 0.00 | 52 | 1013.7 |
| 20260507123714 | 17 | 225 | 12.9 | 16.1 | 0.00 | 0.00 | 0.00 | 50 | 1013.9 |
| 20260507122630 | 17 | 225 | 12.9 | 17.7 | 0.00 | 0.00 | 0.00 | 53 | 1013.9 |
| 20260507121634 | 17 | 225 | 17.7 | 20.9 | 0.00 | 0.00 | 0.00 | 52 | 1014.1 |
| 20260507120610 | 17 | 225 | 14.5 | 19.3 | 0.00 | 0.00 | 0.00 | 53 | 1013.9 |
| 20260507115634 | 16 | 135 | 12.9 | 17.7 | 0.00 | 0.00 | 0.00 | 53 | 1013.9 |
| 20260507114610 | 17 | 180 | 12.9 | 19.3 | 0.00 | 0.00 | 0.00 | 55 | 1014.0 |
| 20260507113654 | 17 | 225 | 12.9 | 17.7 | 0.00 | 0.00 | 0.00 | 56 | 1013.8 |
| 20260507112610 | 17 | 338 | 17.7 | 22.5 | 0.00 | 0.00 | 0.00 | 59 | 1013.9 |
| 20260507111714 | 17 | 225 | 16.1 | 24.1 | 0.00 | 0.00 | 0.00 | 58 | 1013.9 |
| 20260507110630 | 17 | 180 | 12.9 | 19.3 | 0.00 | 0.00 | 0.00 | 58 | 1014.1 |
| 20260507105654 | 17 | 225 | 16.1 | 25.7 | 0.00 | 0.00 | 0.00 | 53 | 1014.1 |
| 20260507104650 | 17 | 225 | 12.9 | 16.1 | 0.00 | 0.00 | 0.00 | 58 | 1014.3 |
| 20260507103654 | 17 | 225 | 16.1 | 17.7 | 0.00 | 0.00 | 0.00 | 55 | 1014.5 |
| 20260507102630 | 17 | 225 | 12.9 | 16.1 | 0.00 | 0.00 | 0.00 | 53 | 1014.2 |
| 20260507101634 | 17 | 225 | 12.9 | 17.7 | 0.00 | 0.00 | 0.00 | 49 | 1014.3 |
| 20260507100630 | 17 | 225 | 12.9 | 19.3 | 0.00 | 0.00 | 0.00 | 50 | 1014.1 |
| 20260507095654 | 17 | 225 | 19.3 | 22.5 | 0.00 | 0.00 | 0.00 | 50 | 1014.2 |
| 20260507094630 | 17 | 225 | 12.9 | 17.7 | 0.00 | 0.00 | 0.00 | 49 | 1014.2 |
| 20260507093654 | 17 | 225 | 12.9 | 19.3 | 0.00 | 0.00 | 0.00 | 48 | 1014.1 |
| 20260507092610 | 17 | 225 | 8.0 | 14.5 | 0.00 | 0.00 | 0.00 | 49 | 1013.9 |
| 20260507091734 | 17 | 225 | 16.1 | 19.3 | 0.00 | 0.00 | 0.00 | 51 | 1013.7 |
| 20260507090610 | 17 | 270 | 17.7 | 22.5 | 0.00 | 0.00 | 0.00 | 47 | 1013.7 |
| 20260507085634 | 18 | 225 | 19.3 | 27.4 | 0.00 | 0.00 | 0.00 | 46 | 1013.7 |
| 20260507084610 | 18 | 225 | 16.1 | 20.9 | 0.00 | 0.00 | 0.00 | 45 | 1013.4 |
| 20260507083734 | 18 | 180 | 16.1 | 20.9 | 0.00 | 0.00 | 0.00 | 47 | 1013.4 |
| 20260507082610 | 17 | 270 | 12.9 | 19.3 | 0.00 | 0.00 | 0.00 | 46 | 1013.2 |
| 20260507081654 | 17 | 225 | 9.7 | 14.5 | 0.00 | 0.00 | 0.00 | 46 | 1013.2 |
| 20260507080630 | 17 | 180 | 11.3 | 16.1 | 0.00 | 0.00 | 0.00 | 46 | 1013.1 |
| 20260507075714 | 17 | 180 | 12.9 | 14.5 | 0.00 | 0.00 | 0.00 | 46 | 1013.2 |
| 20260507074650 | 17 | 225 | 9.7 | 12.9 | 0.00 | 0.00 | 0.00 | 50 | 1013.2 |
| 20260507073714 | 17 | 135 | 11.3 | 12.9 | 0.00 | 0.00 | 0.00 | 50 | 1013.0 |
| 20260507072610 | 17 | 113 | 9.7 | 16.1 | 0.00 | 0.00 | 0.00 | 51 | 1013.1 |
| 20260507071714 | 17 | 180 | 9.7 | 14.5 | 0.00 | 0.00 | 0.00 | 51 | 1013.0 |
| 20260507070611 | 16 | 225 | 9.7 | 12.9 | 0.00 | 0.00 | 0.00 | 51 | 1013.0 |
| 20260507065634 | 16 | 270 | 12.9 | 12.9 | 0.00 | 0.00 | 0.00 | 51 | 1012.9 |
| 20260507064614 | 16 | 225 | 12.9 | 16.1 | 0.00 | 0.00 | 0.00 | 51 | 1012.8 |
| 20260507063634 | 16 | 225 | 6.4 | 11.3 | 0.00 | 0.00 | 0.00 | 52 | 1012.5 |
| 20260507062610 | 16 | 225 | 12.9 | 12.9 | 0.00 | 0.00 | 0.00 | 51 | 1012.6 |
| 20260507061654 | 16 | 180 | 12.9 | 17.7 | 0.00 | 0.00 | 0.00 | 52 | 1012.6 |
| 20260507060610 | 16 | 270 | 12.9 | 17.7 | 0.00 | 0.00 | 0.00 | 52 | 1012.5 |
| 20260507055714 | 16 | 225 | 16.1 | 17.7 | 0.00 | 0.00 | 0.00 | 53 | 1012.5 |
| 20260507054610 | 15 | 180 | 6.4 | 8.0 | 0.00 | 0.00 | 0.00 | 56 | 1012.4 |
| 20260507053714 | 15 | 180 | 4.8 | 6.4 | 0.00 | 0.00 | 0.00 | 55 | 1012.1 |
| 20260507052610 | 15 | 225 | 6.4 | 8.0 | 0.00 | 0.00 | 0.00 | 55 | 1011.9 |
| 20260507051654 | 15 | 180 | 8.0 | 12.9 | 0.00 | 0.00 | 0.00 | 55 | 1011.6 |
| 20260507050610 | 15 | 180 | 12.9 | 16.1 | 0.00 | 0.00 | 0.00 | 56 | 1011.5 |
| 20260507045634 | 15 | 248 | 6.4 | 12.9 | 0.00 | 0.00 | 0.00 | 57 | 1011.7 |
| 20260507044610 | 15 | 225 | 8.0 | 11.3 | 0.00 | 0.00 | 0.00 | 56 | 1011.5 |
| 20260507043634 | 15 | 225 | 9.7 | 16.1 | 0.00 | 0.00 | 0.00 | 56 | 1011.3 |
| 20260507042300 | 14 | 225 | 9.7 | 14.5 | 0.00 | 0.00 | 0.00 | 57 | 1011.2 |
| 20260507041204 | 15 | 180 | 9.7 | 12.9 | 0.00 | 0.00 | 0.00 | 56 | 1010.9 |
| 20260507040140 | 15 | 180 | 8.0 | 11.3 | 0.00 | 0.00 | 0.00 | 56 | 1010.9 |
| 20260507035204 | 15 | 225 | 6.4 | 8.0 | 0.00 | 0.00 | 0.00 | 55 | 1010.8 |
| 20260507034120 | 15 | 180 | 11.3 | 12.9 | 0.00 | 0.00 | 0.00 | 56 | 1010.6 |
| 20260507033304 | 15 | 225 | 12.9 | 17.7 | 0.00 | 0.00 | 0.00 | 56 | 1010.6 |
| 20260507032140 | 15 | 225 | 9.7 | 12.9 | 0.00 | 0.00 | 0.00 | 57 | 1010.6 |
| 20260507031225 | 15 | 225 | 8.0 | 12.9 | 0.00 | 0.00 | 0.00 | 58 | 1010.8 |
| 20260507030241 | 15 | 225 | 8.0 | 11.3 | 0.00 | 0.00 | 0.00 | 60 | 1010.7 |
| 20260507025204 | 15 | 225 | 6.4 | 9.7 | 0.00 | 0.00 | 0.00 | 59 | 1010.8 |
| 20260507024201 | 15 | 225 | 8.0 | 11.3 | 0.00 | 0.00 | 0.00 | 58 | 1010.9 |
| 20260507023205 | 15 | 225 | 3.2 | 4.8 | 0.00 | 0.00 | 0.00 | 57 | 1010.8 |
| 20260507022140 | 15 | 270 | 4.8 | 6.4 | 0.00 | 0.00 | 0.00 | 58 | 1010.9 |
| 20260507020200 | 15 | 180 | 19.3 | 27.4 | 0.00 | 0.00 | 0.00 | 55 | 1010.5 |
| 20260507015145 | 15 | 248 | 17.7 | 24.1 | 0.00 | 0.00 | 0.00 | 55 | 1010.6 |
| 20260507014220 | 15 | 225 | 14.5 | 17.7 | 0.00 | 0.00 | 0.00 | 56 | 1010.4 |
| 20260507013145 | 15 | 270 | 17.7 | 24.1 | 0.00 | 0.00 | 0.00 | 55 | 1010.4 |
| 20260507012120 | 16 | 270 | 17.7 | 27.4 | 0.00 | 0.00 | 0.00 | 54 | 1010.5 |
| 20260507011204 | 16 | 225 | 17.7 | 22.5 | 0.00 | 0.00 | 0.00 | 54 | 1010.4 |
| 20260507010220 | 16 | 225 | 19.3 | 24.1 | 0.00 | 0.00 | 0.00 | 55 | 1010.4 |
| 20260507005144 | 16 | 225 | 9.7 | 16.1 | 0.00 | 0.00 | 0.00 | 54 | 1010.3 |
| 20260507004220 | 16 | 225 | 14.5 | 19.3 | 0.00 | 0.00 | 0.00 | 54 | 1010.4 |
| 20260507003204 | 16 | 225 | 12.9 | 17.7 | 0.00 | 0.00 | 0.00 | 54 | 1010.6 |
| 20260507002140 | 16 | 225 | 14.5 | 17.7 | 0.00 | 0.00 | 0.00 | 54 | 1010.9 |
| 20260507001244 | 16 | 225 | 14.5 | 17.7 | 0.00 | 0.00 | 0.00 | 54 | 1010.9 |
| 20260507000140 | 16 | 225 | 17.7 | 25.7 | 0.00 | 0.00 | 0.00 | 54 | 1010.9 |
| 20260506235144 | 16 | 180 | 24.1 | 29.0 | 0.00 | 0.00 | 0.00 | 54 | 1010.9 |
| 20260506234120 | 16 | 225 | 12.9 | 20.9 | 0.00 | 0.00 | 0.00 | 54 | 1011.0 |
| 20260506233144 | 16 | 180 | 17.7 | 24.1 | 0.00 | 0.00 | 0.00 | 54 | 1010.9 |
| 20260506232301 | 16 | 225 | 17.7 | 20.9 | 0.00 | 0.00 | 0.00 | 54 | 1011.1 |
| 20260506231144 | 16 | 225 | 11.3 | 12.9 | 0.00 | 0.00 | 0.00 | 54 | 1010.7 |
| 20260506230120 | 16 | 225 | 16.1 | 24.1 | 0.00 | 0.00 | 0.00 | 53 | 1010.8 |
| 20260506225145 | 17 | 270 | 11.3 | 17.7 | 0.00 | 0.00 | 0.00 | 53 | 1010.6 |
| 20260506224120 | 17 | 180 | 12.9 | 19.3 | 0.00 | 0.00 | 0.00 | 52 | 1010.8 |
| 20260506223144 | 17 | 315 | 17.7 | 20.9 | 0.00 | 0.00 | 0.00 | 52 | 1011.0 |
| 20260506222140 | 17 | 225 | 12.9 | 24.1 | 0.00 | 0.00 | 0.00 | 52 | 1010.9 |
| 20260506221145 | 17 | 225 | 14.5 | 19.3 | 0.00 | 0.00 | 0.00 | 49 | 1010.6 |
| 20260506220200 | 17 | 270 | 11.3 | 14.5 | 0.00 | 0.00 | 0.00 | 49 | 1010.7 |
| 20260506215204 | 17 | 315 | 8.0 | 9.7 | 0.00 | 0.00 | 0.00 | 49 | 1010.5 |
| 20260506214200 | 17 | 225 | 12.9 | 19.3 | 0.00 | 0.00 | 0.00 | 47 | 1010.5 |
| 20260506213144 | 18 | 225 | 12.9 | 17.7 | 0.00 | 0.00 | 0.00 | 47 | 1010.6 |
| 20260506212120 | 18 | 225 | 11.3 | 16.1 | 0.00 | 0.00 | 0.00 | 46 | 1010.7 |
| 20260506211225 | 18 | 225 | 19.3 | 24.1 | 0.00 | 0.00 | 0.00 | 46 | 1010.6 |
| 20260506210209 | 18 | 225 | 12.9 | 17.7 | 0.00 | 0.00 | 0.00 | 45 | 1010.4 |
| 20260506205144 | 18 | 225 | 16.1 | 19.3 | 0.00 | 0.00 | 0.00 | 45 | 1010.1 |
| 20260506204300 | 18 | 225 | 14.5 | 19.3 | 0.00 | 0.00 | 0.00 | 45 | 1010.0 |
| 20260506203204 | 18 | 225 | 14.5 | 20.9 | 0.00 | 0.00 | 0.00 | 45 | 1010.3 |
| 20260506202120 | 18 | 225 | 19.3 | 27.4 | 0.00 | 0.00 | 0.00 | 44 | 1009.9 |
| 20260506201224 | 18 | 203 | 17.7 | 24.1 | 0.00 | 0.00 | 0.00 | 44 | 1010.1 |
| 20260506200121 | 18 | 225 | 17.7 | 25.7 | 0.00 | 0.00 | 0.00 | 44 | 1010.0 |
| 20260506195145 | 18 | 225 | 11.3 | 16.1 | 0.00 | 0.00 | 0.00 | 43 | 1010.1 |
| 20260506194140 | 18 | 225 | 12.9 | 19.3 | 0.00 | 0.00 | 0.00 | 43 | 1010.5 |
| 20260506193205 | 19 | 180 | 16.1 | 22.5 | 0.00 | 0.00 | 0.00 | 43 | 1010.3 |
| 20260506192120 | 19 | 225 | 12.9 | 17.7 | 0.00 | 0.00 | 0.00 | 43 | 1010.3 |
| 20260506191204 | 19 | 225 | 12.9 | 20.9 | 0.00 | 0.00 | 0.00 | 43 | 1010.3 |
| 20260506190140 | 19 | 225 | 9.7 | 12.9 | 0.00 | 0.00 | 0.00 | 44 | 1010.1 |
| 20260506185144 | 19 | 225 | 19.3 | 25.7 | 0.00 | 0.00 | 0.00 | 42 | 1010.3 |
| 20260506184140 | 19 | 225 | 19.3 | 30.6 | 0.00 | 0.00 | 0.00 | 43 | 1009.9 |